Weather History for Toledo, OH

Change the Weather History Date:

Wednesday, June 20, 2012

  Actual Average Record
Temperature  
Mean Temperature 80 °F 71 °F  
Max Temperature 93 °F 82 °F 98 °F (1953)
Min Temperature 66 °F 60 °F 39 °F (1970)
Degree Days  
Heating Degree Days 0 1  
Month to date heating degree days 26 33  
Since 1 June heating degree days 26 33  
Since 1 July heating degree days 5043 6143  
Cooling Degree Days 15 7  
Month to date cooling degree days 117 94  
Year to date cooling degree days 237 147  
Since 1 June cooling degree days 117 94  
Growing Degree Days 30 (Base 50)    
Moisture  
Dew Point 60 °F    
Average Humidity 58    
Maximum Humidity 87    
Minimum Humidity 28    
Precipitation  
Precipitation 0.00 in 0.12 in 2.02 in (1987)
Month to date precipitation 2.79 2.46  
Year to date precipitation 14.07 15.83  
Snow  
Snow 0.00 in 0.00 in - ()
Month to date snowfall 0.0 0.0  
Since 1 June snowfall 0.0 0.0  
Since 1 July snowfall 20.8 37.6  
Snow Depth 0.00 in    
Sea Level Pressure  
Sea Level Pressure 30.04 in    
Wind  
Wind Speed 7 mph (SSW)    
Max Wind Speed 20 mph    
Max Gust Speed 29 mph    
Visibility 10 miles    
Events      
T = Trace of Precipitation, MM = Missing Value Source: NWS Daily Summary

Daily Weather History Graph

Daily Weather History Graph

Search for Another Location

Airport:

Trip Planner

Search our weather history database for the weather conditions in past years. The results will help you decide how hot, cold, wet, or windy it might be!

Date:

Astronomy

Jun. 20, 2012 Rise Set
Actual Time 6:01 AM EDT 9:12 PM EDT
Civil Twilight 5:26 AM EDT 9:46 PM EDT
Nautical Twilight 4:43 AM EDT 10:30 PM EDT
Astronomical Twilight 3:50 AM EDT 11:23 PM EDT
Moon 7:00 AM EDT (6/20) 9:56 PM EDT (6/20)
Length of Visible Light 16h 19m
Length of Day
15h 11m
New Moon, 1% of the Moon is Illuminated
Jun 20
New Moon
Jun 26
First Quarter
Jul 3
Full
Jul 10
Last Quarter
Jul 19
New

Hourly Weather History & Observations

Time (EDT) Temp. Heat Index Dew Point Humidity Pressure Visibility Wind Dir Wind Speed Gust Speed Precip Events Conditions
12:52 AM 75.9 °F - 61.0 °F 60% 30.04 in 10.0 mi South 5.8 mph - N/A   Clear
1:52 AM 77.0 °F - 61.0 °F 58% 30.04 in 10.0 mi SSW 8.1 mph - N/A   Clear
2:52 AM 75.9 °F - 61.0 °F 60% 30.04 in 10.0 mi SW 6.9 mph - N/A   Clear
3:52 AM 71.1 °F - 63.0 °F 75% 30.05 in 10.0 mi SSW 3.5 mph - N/A   Clear
4:52 AM 69.1 °F - 63.0 °F 81% 30.06 in 10.0 mi South 3.5 mph - N/A   Clear
5:52 AM 66.9 °F - 63.0 °F 87% 30.07 in 10.0 mi Calm Calm - N/A   Clear
6:52 AM 69.1 °F - 63.0 °F 81% 30.10 in 9.0 mi Calm Calm - N/A   Clear
7:52 AM 73.0 °F - 64.0 °F 73% 30.11 in 10.0 mi SSW 6.9 mph - N/A   Clear
8:52 AM 79.0 °F - 64.0 °F 60% 30.11 in 10.0 mi SW 9.2 mph - N/A   Clear
9:52 AM 82.0 °F 83.8 °F 64.9 °F 56% 30.11 in 10.0 mi SW 6.9 mph - N/A   Clear
10:52 AM 86.0 °F 87.3 °F 64.0 °F 48% 30.11 in 10.0 mi Variable 5.8 mph - N/A   Clear
11:52 AM 88.0 °F 87.9 °F 61.0 °F 40% 30.10 in 10.0 mi WSW 13.8 mph 17.3 mph N/A   Partly Cloudy
12:52 PM 89.6 °F 88.1 °F 57.2 °F 33% 30.10 in 10.0 mi SW 15.0 mph 23.0 mph N/A   Partly Cloudy
1:52 PM 91.0 °F 89.7 °F 57.0 °F 32% 30.06 in 10.0 mi SW 13.8 mph 20.7 mph N/A   Partly Cloudy
2:52 PM 91.9 °F 90.3 °F 55.9 °F 30% 30.04 in 10.0 mi SW 13.8 mph 23.0 mph N/A   Clear
3:52 PM 93.0 °F 91.4 °F 55.9 °F 29% 30.02 in 10.0 mi SW 6.9 mph 23.0 mph N/A   Clear
4:52 PM 93.0 °F 91.4 °F 55.9 °F 29% 30.01 in 10.0 mi SW 10.4 mph 18.4 mph N/A   Clear
5:52 PM 91.9 °F 90.6 °F 57.0 °F 31% 29.99 in 10.0 mi SSW 12.7 mph 17.3 mph N/A   Clear
6:52 PM 90.0 °F 89.7 °F 60.1 °F 37% 29.97 in 10.0 mi SSW 5.8 mph - N/A   Clear
7:52 PM 87.8 °F 87.6 °F 60.8 °F 40% 29.98 in 10.0 mi SSW 6.9 mph - N/A   Clear
8:52 PM 84.9 °F 84.2 °F 57.9 °F 40% 29.96 in 10.0 mi SSW 5.8 mph - N/A   Clear
9:52 PM 82.0 °F 82.0 °F 57.9 °F 44% 29.96 in 10.0 mi SSW 4.6 mph - N/A   Clear
10:52 PM 80.1 °F 80.7 °F 59.0 °F 48% 29.95 in 10.0 mi SSW 6.9 mph - N/A   Clear
11:52 PM 80.1 °F 80.7 °F 59.0 °F 48% 29.95 in 10.0 mi SSW 5.8 mph - N/A   Clear